Waarnemingen

Advertentie
Mijn weer
Ile Rousse, Frankrijk (7753): temperatuur & dauwpunt: 17.10.2017 04:00:00 - 23.10.2017 04:00:00 (CEST)Ile Rousse, Frankrijk (7753): windsnelheid & windstoten: 17.10.2017 04:00:00 - 23.10.2017 04:00:00 (CEST)Ile Rousse, Frankrijk (7753): windrichting: 17.10.2017 04:00:00 - 23.10.2017 04:00:00 (CEST)Ile Rousse, Frankrijk (7753): luchtdruk: 17.10.2017 04:00:00 - 23.10.2017 04:00:00 (CEST)Ile Rousse, Frankrijk (7753): zicht: 17.10.2017 04:00:00 - 23.10.2017 04:00:00 (CEST)Ile Rousse, Frankrijk (7753): neerslag: 17.10.2017 04:00:00 - 23.10.2017 04:00:00 (CEST)
Datum & Tijd tt [°C] td [°C] ff [km/u] ff [kn] fx [km/u] fx [kn] dd ppp [hPa] vv [km] rr [mm]
23.10.2017 04:00:00 15,4 7,7 34 18 52 28 ZW 1013,3 - 0,0
23.10.2017 03:00:00 15,5 7,5 35 19 55 30 ZW 1013,5 - 0,0
23.10.2017 02:00:00 16,5 10,1 21 11 56 30 W 1013,5 - 0,0
23.10.2017 01:00:00 16,8 9,0 36 19 71 38 WZW 1013,3 - 0,0
23.10.2017 00:00:00 16,8 8,2 46 25 77 41 ZW 1013,1 - 0,0
22.10.2017 23:00:00 16,6 5,5 54 29 83 45 ZW 1013,0 - 0,0
22.10.2017 22:00:00 16,9 5,8 52 28 92 50 WZW 1013,1 - 0,0
22.10.2017 21:00:00 17,7 4,6 56 31 103 55 WZW 1012,5 - 0,0
22.10.2017 20:00:00 17,3 5,2 53 28 102 55 WZW 1012,3 20 0,0
22.10.2017 19:00:00 17,0 6,5 63 34 122 66 ZW 1011,7 - 0,0
22.10.2017 18:00:00 17,2 5,8 76 41 125 67 ZW 1011,1 - 0,0
22.10.2017 17:00:00 17,7 5,3 76 41 129 70 ZW 1011,5 20 0,0
22.10.2017 16:00:00 18,8 5,3 73 39 124 67 WZW 1011,7 - 0,0
22.10.2017 15:00:00 19,6 6,0 74 40 134 72 WZW 1011,4 - 0,0
22.10.2017 14:00:00 19,3 6,1 83 45 130 70 ZW 1012,0 18 0,0
22.10.2017 13:00:00 20,6 5,8 67 36 129 69 WZW 1012,5 - 0,0
22.10.2017 12:00:00 21,1 8,4 72 39 115 62 ZW 1013,0 - 0,0
22.10.2017 11:00:00 19,1 12,1 61 33 101 54 WZW 1014,1 22 0,0
22.10.2017 10:00:00 20,4 8,7 56 30 84 45 ZW 1015,0 - 0,0
22.10.2017 09:00:00 20,4 10,2 37 20 69 37 ZW 1015,3 - 0,0
22.10.2017 08:00:00 20,7 10,5 44 24 69 37 ZW 1015,2 15 0,0
22.10.2017 07:00:00 19,7 14,1 35 19 70 38 ZW 1015,6 - 0,0
22.10.2017 06:00:00 20,2 14,1 46 25 75 40 ZW 1015,7 - 0,0
22.10.2017 05:00:00 20,4 14,5 31 17 61 33 ZW 1016,2 15 0,0
22.10.2017 04:00:00 20,5 14,4 34 18 56 30 ZW 1016,9 - 0,0
22.10.2017 03:00:00 19,4 16,4 27 14 61 33 WZW 1017,6 - 0,0
22.10.2017 02:00:00 21,0 13,2 16 9 45 25 W 1017,8 - 0,0
22.10.2017 01:00:00 20,8 13,0 24 13 41 22 WZW 1018,3 - 0,0
22.10.2017 00:00:00 20,5 13,2 16 9 41 22 ZW 1018,6 - 0,0
21.10.2017 23:00:00 19,9 14,9 19 11 34 18 ZZW 1019,2 - 0,0
21.10.2017 22:00:00 19,4 15,9 11 6 45 24 ZZW 1019,6 - 0,0
21.10.2017 21:00:00 19,5 17,1 22 12 48 26 ZW 1019,5 - 0,0
21.10.2017 20:00:00 19,6 17,7 34 19 54 29 WZW 1019,0 15 0,0
21.10.2017 19:00:00 19,9 17,7 32 17 52 28 WZW 1018,6 - 0,0
21.10.2017 18:00:00 21,0 17,2 30 16 54 29 WZW 1018,5 - 0,0
21.10.2017 17:00:00 22,2 16,9 34 18 61 33 WZW 1018,4 20 0,0
21.10.2017 16:00:00 22,4 16,7 31 17 60 32 WZW 1018,5 - 0,0
21.10.2017 15:00:00 22,7 17,6 32 17 54 29 WZW 1019,1 - 0,0
21.10.2017 14:00:00 21,7 16,6 27 15 42 23 W 1019,8 20 0,0
21.10.2017 13:00:00 21,4 17,0 16 9 27 15 W 1020,7 - 0,0
21.10.2017 12:00:00 21,4 14,1 16 9 22 12 W 1021,0 - 0,0
21.10.2017 11:00:00 20,9 11,0 7 4 10 6 W 1021,0 18 0,0
21.10.2017 10:00:00 19,3 13,7 4 2 7 4 WNW 1021,0 - 0,0
21.10.2017 09:00:00 19,6 10,8 3 2 7 4 ZW 1020,6 - 0,0
21.10.2017 08:00:00 18,6 13,2 6 3 9 5 O 1020,3 18 0,0
21.10.2017 07:00:00 17,8 13,3 6 4 9 5 O 1020,2 - 0,0
21.10.2017 06:00:00 18,9 13,1 7 4 12 6 OZO 1019,9 - 0,0
21.10.2017 05:00:00 18,6 15,7 10 6 20 11 WZW 1019,9 18 0,0
21.10.2017 04:00:00 19,2 14,7 11 6 14 7 ZW 1019,9 - 0,0
21.10.2017 03:00:00 19,0 12,5 8 5 11 6 W 1020,0 - 0,0
21.10.2017 02:00:00 19,7 10,7 8 4 10 6 WZW 1020,2 - 0,0
21.10.2017 01:00:00 19,6 11,1 6 3 12 7 WZW 1020,2 - 0,0
21.10.2017 00:00:00 19,9 11,4 9 5 13 7 W 1020,2 - 0,0
20.10.2017 23:00:00 19,8 11,8 10 5 16 9 WZW 1020,1 - 0,0
20.10.2017 22:00:00 20,2 11,7 11 6 17 9 W 1019,7 - 0,0
20.10.2017 21:00:00 19,8 16,1 8 4 9 5 ZW 1019,4 - 0,0
20.10.2017 20:00:00 19,3 16,1 3 1 6 3 ZZO 1019,2 20 0,0
20.10.2017 19:00:00 19,8 16,2 3 1 6 4 ZO 1018,4 - 0,0
20.10.2017 18:00:00 20,9 16,7 4 2 17 9 NNW 1018,0 - 0,0
20.10.2017 17:00:00 22,1 17,0 14 8 22 12 W 1017,8 20 0,0
20.10.2017 16:00:00 22,6 16,2 14 8 28 15 W 1017,4 - 0,0
20.10.2017 15:00:00 22,3 15,9 22 12 32 17 W 1017,3 - 0,0
20.10.2017 14:00:00 22,2 16,0 23 12 30 16 W 1017,3 - 0,0
20.10.2017 13:00:00 22,9 13,1 8 4 16 8 WNW 1017,5 - 0,0
20.10.2017 12:00:00 22,6 11,0 3 1 9 5 N 1017,7 - 0,0
20.10.2017 11:00:00 20,6 12,6 3 2 10 6 NW 1017,9 20 0,0
20.10.2017 10:00:00 20,5 11,4 8 4 12 6 O 1017,2 - 0,0
20.10.2017 09:00:00 19,7 8,7 3 2 9 5 W 1016,7 - 0,0
20.10.2017 08:00:00 19,5 9,9 9 5 11 6 W 1016,0 20 0,0
20.10.2017 07:00:00 19,3 11,3 5 3 10 5 W 1015,3 - 0,0
20.10.2017 06:00:00 19,3 6,4 2 1 10 6 Z 1014,8 - 0,0
20.10.2017 05:00:00 19,7 12,2 4 2 11 6 NNW 1014,6 - 0,0
20.10.2017 04:00:00 19,3 8,9 5 3 10 5 O 1014,5 - 0,0
20.10.2017 03:00:00 19,7 9,3 5 3 11 6 NO 1014,9 - 0,0
20.10.2017 02:00:00 20,2 11,9 6 3 14 7 ONO 1014,7 - 0,0
20.10.2017 01:00:00 19,2 10,7 10 5 24 13 WZW 1014,2 - 0,0
20.10.2017 00:00:00 21,7 8,9 17 9 30 16 Z 1013,6 - 0,0
19.10.2017 23:00:00 21,6 9,5 17 9 29 16 ZZO 1013,5 - 0,0
19.10.2017 22:00:00 21,2 10,4 8 5 11 6 ZO 1013,8 - 0,0
19.10.2017 21:00:00 20,7 10,2 4 2 6 3 WNW 1013,4 - 0,0
19.10.2017 20:00:00 20,8 9,7 2 1 9 5 Z 1013,0 17 0,0
19.10.2017 19:00:00 20,3 11,8 3 2 8 5 NNO 1012,8 - 0,0
19.10.2017 18:00:00 20,5 12,2 4 2 14 8 WZW 1013,0 - 0,0
19.10.2017 17:00:00 20,9 12,3 8 5 13 7 W 1013,0 15 0,0
19.10.2017 16:00:00 21,6 12,7 6 4 11 6 ZW 1013,5 - 0,0
19.10.2017 15:00:00 21,9 14,3 7 4 13 7 W 1013,9 - 0,0
19.10.2017 14:00:00 20,9 14,8 7 4 15 8 NNW 1014,7 22 0,0
19.10.2017 13:00:00 20,9 14,8 6 3 18 10 W 1015,4 - 0,0
19.10.2017 12:00:00 20,8 13,7 14 7 26 14 WNW 1015,7 - 0,0
19.10.2017 11:00:00 20,6 15,4 14 8 25 13 W 1015,6 - 0,0
19.10.2017 10:00:00 18,8 13,2 3 2 16 8 ZW 1015,9 - 0,0
19.10.2017 09:00:00 17,3 12,4 14 8 18 10 O 1015,6 - 0,0
19.10.2017 08:00:00 17,0 12,3 16 9 24 13 W 1014,9 20 0,0
19.10.2017 07:00:00 17,9 12,6 2 1 9 5 ZW 1014,7 - 0,0
19.10.2017 06:00:00 17,2 13,5 8 5 9 5 OZO 1014,9 - 0,0
19.10.2017 05:00:00 16,9 13,2 2 1 9 5 ZZW 1015,2 18 0,0
19.10.2017 04:00:00 17,7 13,6 7 4 9 5 W 1015,2 - 0,0
19.10.2017 03:00:00 17,7 14,2 6 3 7 4 W 1015,9 - 0,0
19.10.2017 02:00:00 17,4 12,9 5 3 7 4 O 1016,3 - 0,0
19.10.2017 01:00:00 18,0 13,7 7 4 13 7 ONO 1016,6 - 0,0
19.10.2017 00:00:00 18,0 14,5 11 6 12 7 O 1017,0 - 0,0
18.10.2017 23:00:00 18,2 15,6 4 2 6 3 WZW 1017,5 - 0,0
18.10.2017 22:00:00 18,3 15,7 5 3 8 4 W 1017,3 - 0,0
18.10.2017 21:00:00 18,3 15,5 3 2 6 3 NO 1017,1 - 0,0
18.10.2017 20:00:00 18,1 15,4 6 3 12 7 O 1017,3 15 0,0
18.10.2017 19:00:00 18,1 15,0 11 6 17 9 O 1016,9 - 0,0
18.10.2017 18:00:00 19,5 15,6 11 6 13 7 O 1017,0 15 0,0
18.10.2017 17:00:00 19,5 15,8 9 5 15 8 ONO 1017,1 - 0,0
18.10.2017 16:00:00 19,6 15,9 9 5 16 8 NNO 1017,6 - 0,0
18.10.2017 15:00:00 19,6 15,9 9 5 16 9 NO 1017,9 - 0,0
18.10.2017 14:00:00 20,1 15,7 8 5 18 10 NW 1018,6 15 -
18.10.2017 13:00:00 19,3 14,8 9 5 16 9 NW 1019,3 - 0,0
18.10.2017 12:00:00 19,1 14,6 8 4 13 7 N 1019,7 - 0,0
18.10.2017 11:00:00 17,9 15,2 5 3 10 5 NNW 1019,7 - 0,0
18.10.2017 10:00:00 17,5 15,5 8 4 14 8 ONO 1019,8 - 0,0
18.10.2017 09:00:00 16,6 15,0 13 7 17 9 O 1019,8 - 0,0
18.10.2017 08:00:00 16,1 14,8 8 5 10 5 ZO 1019,8 15 0,0
18.10.2017 07:00:00 16,7 15,4 4 2 8 4 W 1020,2 - 0,0
18.10.2017 06:00:00 16,6 15,3 4 2 8 4 W 1020,5 - 0,0
18.10.2017 05:00:00 16,7 15,2 0 0 3 2 N 1020,7 20 0,0
18.10.2017 04:00:00 17,0 15,5 3 1 5 3 NO 1020,7 - 0,2
18.10.2017 03:00:00 16,7 15,2 4 2 9 5 ONO 1021,3 - 0,0
18.10.2017 02:00:00 16,7 15,1 7 4 9 5 O 1021,6 - 0,0
18.10.2017 01:00:00 16,8 15,0 6 3 7 4 O 1021,8 - 0,0
18.10.2017 00:00:00 17,1 15,1 5 3 8 5 ONO 1021,9 - 0,0
17.10.2017 23:00:00 17,1 14,9 7 4 9 5 O 1022,1 - 0,0
17.10.2017 22:00:00 17,2 14,8 6 4 8 4 O 1022,2 - 0,0
17.10.2017 21:00:00 17,6 15,0 3 2 5 3 NO 1022,5 - 0,0
17.10.2017 20:00:00 17,8 14,7 2 1 4 2 O 1022,8 20 0,0
17.10.2017 19:00:00 18,2 14,9 4 2 6 4 O 1022,6 - 0,0
17.10.2017 18:00:00 19,1 15,0 6 3 14 7 ONO 1022,4 - 0,0
17.10.2017 17:00:00 19,1 15,2 10 5 15 8 NNO 1022,6 - 0,0
17.10.2017 16:00:00 19,3 15,6 9 5 21 12 NNO 1023,1 - 0,0
17.10.2017 15:00:00 19,9 15,7 13 7 21 11 NO 1023,4 - 0,0
17.10.2017 14:00:00 19,6 14,8 14 8 21 11 NO 1024,0 - 0,0
17.10.2017 13:00:00 19,3 16,1 15 8 20 11 NO 1024,7 - 0,0
17.10.2017 12:00:00 19,1 13,9 10 5 14 8 NO 1025,3 - 0,0
17.10.2017 11:00:00 18,3 12,7 8 4 15 8 NO 1025,4 18 0,0
17.10.2017 10:00:00 17,2 14,5 13 7 16 9 O 1025,6 - 0,0
17.10.2017 09:00:00 16,3 14,3 11 6 16 9 O 1025,6 - 0,0
17.10.2017 08:00:00 16,1 14,5 10 6 13 7 O 1025,3 18 0,0
17.10.2017 07:00:00 15,9 14,3 10 6 12 7 O 1025,3 - 0,0
17.10.2017 06:00:00 16,6 15,1 8 4 12 6 ONO 1025,3 - 0,0
17.10.2017 05:00:00 16,9 15,4 10 5 13 7 ONO 1025,4 - 0,0
17.10.2017 04:00:00 16,7 15,2 13 7 15 8 O 1025,4 - 0,0

tt = temperatuur
td = dauwpunt
ff = windsnelheid
fx = windstoten
dd = windrichting
ppp = luchtdruk
vv = zicht
rr = neerslag

Weerstations in de omgeving